Broken Bow, NE

1:04 AM CDT on August 24, 2016 (GMT -0500)
Broken Bow Municipal

Weather History for KBBW - October, 2011

Change the Weather History Date:

Monday, October 3, 2011

  Actual Average Record
Temperature  
Mean Temperature 61 °F 54 °F  
Max Temperature 82 °F 68 °F 92 °F (1967)
Min Temperature 39 °F 40 °F 25 °F (1999)
Degree Days  
Heating Degree Days 4 11  
Month to date heating degree days 21 32  
Cooling Degree Days 0 0  
Month to date cooling degree days 0 2  
Year to date cooling degree days 747 764  
Growing Degree Days 10 (Base 50)    
Moisture  
Dew Point 41 °F    
Average Humidity 56    
Maximum Humidity 85    
Minimum Humidity 26    
Precipitation  
Precipitation 0.00 in 0.07 in 0.78 in (1990)
Sea Level Pressure  
Sea Level Pressure 30.04 in    
Wind  
Wind Speed 5 mph (SE)    
Max Wind Speed 18 mph    
Max Gust Speed 26 mph    
Visibility 10 miles    
Events      
T = Trace of Precipitation, MM = Missing Value Source: NWS Daily Summary

Daily Weather History Graph

Daily Weather History Graph

Search for Another Location

Airport or City:

Trip Planner

Search our weather history database for the weather conditions in past years. The results will help you decide how hot, cold, wet, or windy it might be!

Date:

Astronomy

Oct. 03, 2011 Rise Set
Actual Time 7:37 AM CDT 7:17 PM CDT
Civil Twilight 7:09 AM CDT 7:44 PM CDT
Nautical Twilight 6:37 AM CDT 8:16 PM CDT
Astronomical Twilight 6:05 AM CDT 8:49 PM CDT
Moon 2:40 PM CDT (10/3) No Moon Set
Length of Visible Light 12h 35m
Length of Day
11h 40m
Waxing Crescent, 45% of the Moon is Illuminated
Oct 3
Waxing Crescent
Oct 3
First Quarter
Oct 11
Full
Oct 19
Last Quarter
Oct 26
New

Hourly Weather History & Observations

Time (CDT) Temp. Windchill Dew Point Humidity Pressure Visibility Wind Dir Wind Speed Gust Speed Precip Events Conditions
12:53 AM 57.0 °F - 37.9 °F 49% 30.05 in 10.0 mi South 8.1 mph - N/A   Clear
1:53 AM 50.0 °F - 37.9 °F 63% 30.05 in 10.0 mi Calm Calm - N/A   Clear
2:53 AM 48.0 °F - 37.9 °F 68% 30.04 in 10.0 mi Calm Calm - N/A   Clear
3:53 AM 50.0 °F - 39.0 °F 66% 30.03 in 10.0 mi SE 4.6 mph - N/A   Clear
4:53 AM 46.0 °F - 37.9 °F 73% 30.04 in 10.0 mi Calm Calm - N/A   Clear
5:53 AM 41.0 °F - 36.0 °F 82% 30.05 in 10.0 mi Calm Calm - N/A   Clear
6:53 AM 39.9 °F 37.8 °F 36.0 °F 86% 30.07 in 10.0 mi North 3.5 mph - N/A   Clear
7:53 AM 41.0 °F - 36.0 °F 82% 30.09 in 10.0 mi Calm Calm - N/A   Clear
8:53 AM 48.2 °F - 41.0 °F 76% 30.10 in 10.0 mi Calm Calm - N/A   Clear
9:53 AM 57.9 °F - 42.1 °F 56% 30.08 in 10.0 mi Calm Calm - N/A   Clear
10:53 AM 64.0 °F - 42.1 °F 45% 30.07 in 10.0 mi SSW 6.9 mph - N/A   Clear
11:53 AM 68.0 °F - 42.1 °F 39% 30.06 in 10.0 mi ESE 4.6 mph - N/A   Clear
12:53 PM 73.4 °F - 42.8 °F 33% 30.08 in 10.0 mi SE 9.2 mph - N/A   Clear
1:53 PM 79.0 °F - 43.0 °F 28% 30.02 in 10.0 mi SE 12.7 mph 19.6 mph N/A   Clear
2:53 PM 77.0 °F - 42.1 °F 29% 30.01 in 10.0 mi SSE 12.7 mph 19.6 mph N/A   Clear
3:53 PM 82.0 °F - 44.1 °F 26% 30.00 in 10.0 mi SSE 12.7 mph 20.7 mph N/A   Clear
4:53 PM 80.1 °F - 42.1 °F 26% 30.01 in 10.0 mi SSE 12.7 mph 26.5 mph N/A   Clear
5:53 PM 77.0 °F - 43.0 °F 30% 30.01 in 10.0 mi SSE 11.5 mph - N/A   Clear
6:53 PM 71.1 °F - 46.0 °F 41% 30.02 in 10.0 mi SE 6.9 mph - N/A   Clear
7:53 PM 66.2 °F - 44.6 °F 46% 30.04 in 10.0 mi SE 8.1 mph - N/A   Clear
8:53 PM 63.0 °F - 45.0 °F 52% 30.04 in 10.0 mi SE 3.5 mph - N/A   Clear
9:53 PM 59.0 °F - 44.1 °F 58% 30.03 in 10.0 mi ESE 3.5 mph - N/A   Clear
10:53 PM 52.0 °F - 43.0 °F 71% 30.03 in 10.0 mi Calm Calm - N/A   Clear
11:53 PM 52.0 °F - 43.0 °F 71% 30.01 in 10.0 mi ESE 3.5 mph - N/A   Clear